Wind_Speed
9 9 9 10 10 10 10 11 11 10 11 11 11 11 12 12 13 13 14 14 14 14 14 14 14 14 14 13 13 13 12 12 11 11 11 10 9 8 8 7 7 6 5
11 12 12 12 13 13 14 14 14 14 14 14 14 14 14 14 14 14 15 15 15 15 15 14 15 15 14 14 14 14 13 12 12 11 11 10 10 9 9 8 7 6 5
13 14 15 15 15 16 17 17 17 17 17 17 17 16 16 16 16 16 16 16 17 17 16 16 15 15 15 15 15 14 14 13 12 12 11 10 10 10 9 8 7 6 5
15 16 17 17 18 19 20 21 21 21 21 21 20 19 19 19 18 18 19 19 19 19 18 17 17 16 15 15 15 14 14 13 12 11 11 11 10 10 9 9 8 7 6
17 17 18 19 20 21 22 23 23 24 24 24 24 23 22 22 21 21 21 21 21 21 20 19 18 17 16 15 15 15 14 13 12 11 11 10 10 10 9 9 8 8 7
18 19 20 21 21 21 22 23 24 26 26 27 28 28 27 26 25 24 23 23 23 22 21 21 20 18 17 16 15 15 14 13 12 11 11 10 10 10 10 10 9 8 8
20 20 21 21 21 22 23 23 25 26 27 28 29 29 29 28 28 27 26 25 24 24 24 23 21 20 19 18 17 16 14 13 12 12 11 10 10 10 10 10 9 9 9
19 20 20 20 21 22 22 23 23 24 25 26 28 29 29 29 29 29 29 28 27 25 25 24 22 21 20 19 18 17 15 14 13 12 11 11 11 10 10 10 10 10 10
18 18 18 19 19 20 20 21 21 22 23 24 26 27 28 29 29 30 31 31 30 29 26 24 24 24 22 21 20 18 16 15 13 12 12 11 11 10 10 10 10 11 11
16 16 17 17 18 18 19 19 20 21 22 22 24 25 26 27 28 29 30 31 31 30 30 27 25 25 24 23 21 20 18 16 14 13 12 12 11 11 10 11 11 12 12
15 15 16 16 16 16 17 18 19 19 20 21 22 22 23 25 27 28 29 30 30 30 30 30 27 26 25 24 22 21 20 18 16 14 13 12 12 11 11 11 11 12 13
13 14 14 15 15 15 16 17 18 18 19 19 20 20 21 22 24 25 27 28 30 29 29 29 28 28 26 25 23 22 22 19 17 16 14 13 13 12 12 12 12 13 14
11 12 12 13 14 15 16 16 16 17 17 18 19 20 20 20 21 23 25 26 27 28 29 28 28 28 27 25 25 22 23 21 19 18 16 14 14 13 12 13 13 14 15
10 10 11 12 13 14 15 15 15 15 15 16 17 18 18 19 20 21 23 24 25 26 27 28 26 27 28 27 26 24 23 22 21 20 18 16 15 14 13 13 14 15 15
8 9 10 12 13 13 14 15 15 14 14 15 15 15 16 18 19 20 21 22 24 24 25 27 26 26 26 26 25 24 23 23 21 20 19 18 17 15 15 14 14 14 16
7 8 10 11 12 13 14 15 15 15 14 13 13 13 14 15 15 17 18 19 20 22 23 24 26 26 26 25 25 25 25 24 22 22 21 20 18 17 16 16 15 14 16
7 8 9 11 12 14 15 15 15 16 15 13 12 12 12 12 12 13 14 16 18 19 20 22 24 25 25 24 25 26 26 25 24 23 22 21 20 19 18 17 16 15 16
6 8 9 11 12 13 15 15 16 16 16 14 13 12 11 11 10 10 11 13 15 17 18 20 21 23 25 25 25 26 26 27 26 25 24 22 21 20 20 18 17 16 16
5 7 9 11 12 13 14 15 16 16 16 15 14 12 11 11 9 8 8 10 12 14 16 18 19 20 22 24 24 26 27 27 27 26 25 25 24 22 21 20 19 18 18
5 7 8 10 12 13 14 15 16 16 16 16 14 13 12 10 9 7 6 7 9 12 14 15 17 18 20 23 25 26 26 27 28 28 27 26 26 25 24 23 22 21 20
4 6 8 10 11 12 14 15 15 16 17 16 15 14 12 10 9 7 5 4 5 8 12 13 14 16 17 20 23 26 25 25 27 29 29 29 28 27 26 25 25 23 22
4 6 8 9 11 12 13 14 15 16 16 16 15 14 13 11 9 7 5 3 2 4 8 10 13 15 16 18 20 23 25 26 27 29 29 29 29 29 28 28 27 25 24
4 6 8 9 11 12 13 14 15 16 16 16 16 14 13 12 10 8 7 4 2 2 4 7 10 12 14 17 19 20 21 24 27 29 29 29 28 29 30 29 29 28 26
4 5 7 9 11 12 13 14 15 16 16 16 16 15 13 12 11 9 8 6 4 1 2 4 7 10 12 15 18 19 20 22 24 27 29 30 30 30 31 32 31 30 29
4 6 7 9 11 12 13 14 14 15 15 16 16 15 14 12 11 10 8 7 5 3 1 1 4 6 9 11 14 18 19 22 22 24 27 29 30 30 31 32 32 32 32
4 6 7 9 11 12 13 14 14 14 14 15 15 15 14 12 11 10 9 8 6 5 3 2 2 4 6 9 12 14 17 20 22 23 25 27 29 31 32 33 34 34 33
Wind_Direction
300 300 296 294 293 292 289 284 281 277 274 269 264 259 251 244 239 236 233 232 232 231 231 231 231 233 235 234 234 236 239 245 248 250 251 255 260 269 278 286 298 308 313
297 297 297 294 290 288 286 283 280 276 273 269 266 260 256 252 246 242 238 237 235 233 234 234 234 236 235 234 234 236 239 244 247 248 247 250 256 262 268 273 280 288 293
295 295 294 291 288 286 284 282 280 277 275 272 267 262 257 254 249 245 242 240 238 236 236 236 235 236 236 235 236 237 239 242 245 245 244 247 252 257 259 263 266 268 267
295 294 293 292 289 286 284 283 282 280 277 274 271 265 259 256 252 247 245 243 241 238 237 237 237 237 237 237 238 238 238 239 240 240 241 244 248 251 251 252 252 250 245
298 297 296 294 292 289 285 283 281 280 277 274 271 267 261 258 255 252 248 246 245 241 238 237 237 238 238 238 238 238 236 235 235 236 238 240 244 246 244 243 243 239 237
301 300 299 297 295 291 288 284 281 278 275 273 271 266 263 259 256 254 251 248 247 242 240 238 237 237 237 237 237 235 233 233 233 232 234 236 238 238 238 239 233 228 226
304 303 302 300 297 293 290 287 283 279 275 271 270 266 263 260 257 254 251 250 249 244 241 239 236 236 236 236 234 232 232 232 231 231 231 232 232 231 233 233 227 221 214
307 306 305 303 300 296 293 289 285 282 277 272 269 266 264 261 258 255 253 250 248 246 244 242 238 236 236 236 232 230 231 230 230 229 228 229 228 228 226 226 219 212 210
311 311 309 306 304 301 298 294 290 286 282 277 272 269 265 264 260 257 253 250 247 245 244 244 240 238 237 236 232 229 227 227 226 225 226 225 223 222 220 217 211 207 204
316 315 313 311 309 305 302 298 294 289 286 282 278 274 269 266 262 259 255 251 247 247 245 244 240 239 237 234 231 227 225 224 222 223 221 221 218 215 214 209 208 205 201
320 320 319 318 316 312 309 306 301 295 290 286 282 278 273 268 264 261 257 253 249 247 246 245 241 237 236 234 232 226 222 220 220 220 217 216 213 209 208 207 205 203 199
326 327 327 325 323 320 317 313 307 301 295 290 286 283 279 273 268 263 259 256 251 249 246 243 239 236 236 233 230 227 221 218 219 218 214 213 210 207 207 207 206 203 200
333 337 338 338 337 334 330 325 318 310 303 296 289 284 281 277 272 266 260 256 251 248 246 244 238 237 235 235 229 224 221 217 217 214 211 210 209 207 205 204 206 202 200
342 348 350 351 349 346 343 339 331 322 314 306 298 288 282 279 274 268 262 257 251 246 244 243 239 236 234 234 231 225 221 218 215 214 210 208 208 209 206 205 201 198 197
352 356 358 358 357 354 352 349 344 336 325 316 307 298 290 284 277 270 263 257 251 246 241 239 237 236 232 231 229 221 219 218 216 213 210 208 208 208 208 205 199 199 197
359 3 4 4 2 1 359 355 352 348 340 331 320 310 301 293 282 273 266 257 250 245 240 237 236 235 231 229 228 222 222 218 215 214 211 209 209 209 208 205 201 200 197
2 7 8 8 7 6 4 1 358 355 351 345 337 327 316 305 292 280 268 257 249 244 239 236 235 234 230 226 225 223 220 218 217 214 212 210 210 211 209 209 204 204 201
3 8 9 9 8 7 6 5 4 2 359 355 348 341 332 320 304 288 273 258 249 241 235 233 234 232 229 227 226 223 220 218 217 215 213 213 213 212 211 211 208 206 204
3 9 9 8 8 7 6 7 7 5 3 0 356 350 345 338 323 303 282 262 247 238 233 233 235 231 227 226 226 224 223 221 219 218 216 215 214 213 213 214 212 210 210
358 4 3 3 5 6 6 6 7 7 6 4 1 359 355 351 343 327 302 273 248 236 231 233 233 232 227 224 223 225 225 226 222 220 217 216 216 216 216 217 215 214 214
348 357 357 359 2 4 4 5 5 6 7 7 6 5 3 358 353 348 332 295 255 235 231 233 234 232 228 224 222 223 225 224 222 220 219 219 218 219 219 219 218 218 217
339 352 356 358 0 2 2 2 4 5 6 7 8 9 9 8 7 4 356 333 278 238 231 233 232 230 232 228 223 223 225 225 223 221 221 222 222 222 222 222 221 220 220
331 347 352 356 358 359 360 1 2 4 6 7 9 9 11 14 15 15 12 10 353 247 231 233 229 229 229 228 225 226 227 227 225 224 224 224 225 224 225 225 224 225 225
323 339 347 352 355 357 359 359 1 3 6 8 10 12 14 17 20 21 21 24 27 17 248 239 229 227 228 227 225 227 229 227 226 227 228 228 229 229 227 226 226 226 227
315 333 343 348 352 355 356 357 359 2 6 9 12 14 16 19 22 24 24 24 24 20 0 265 237 233 231 228 228 229 231 230 229 230 230 229 230 230 230 229 230 230 229
305 326 337 344 348 351 353 355 359 3 6 9 12 15 17 19 22 24 25 24 23 20 18 344 264 244 236 232 230 231 234 234 230 230 230 231 232 232 232 232 233 232 231
Height
5883 5882 5881 5880 5879 5878 5877 5877 5876 5876 5875 5875 5875 5874 5874 5874 5874 5874 5874 5874 5874 5874 5875 5875 5875 5876 5876 5877 5877 5878 5879 5880 5880 5881 5881 5881 5882 5882 5882 5882 5882 5882 5881
5881 5880 5879 5878 5877 5876 5875 5875 5874 5873 5873 5873 5872 5872 5872 5872 5872 5872 5872 5872 5872 5872 5872 5873 5873 5873 5874 5874 5875 5876 5876 5877 5878 5879 5879 5880 5880 5880 5881 5881 5881 5881 5881
5879 5878 5877 5875 5874 5873 5872 5871 5871 5870 5870 5869 5869 5869 5869 5869 5869 5869 5869 5869 5869 5869 5870 5870 5870 5871 5871 5872 5872 5873 5874 5875 5875 5876 5877 5877 5878 5879 5879 5879 5880 5880 5880
5876 5875 5874 5872 5871 5870 5869 5868 5867 5866 5865 5865 5865 5865 5865 5865 5865 5865 5865 5865 5866 5866 5866 5867 5867 5868 5869 5869 5870 5870 5871 5872 5873 5874 5874 5875 5876 5876 5877 5878 5878 5878 5879
5873 5871 5870 5868 5867 5866 5864 5863 5862 5861 5860 5860 5860 5860 5860 5860 5860 5861 5861 5861 5862 5862 5863 5863 5864 5865 5866 5867 5867 5868 5869 5869 5870 5871 5872 5873 5874 5874 5875 5876 5877 5877 5878
5870 5868 5866 5864 5863 5861 5860 5858 5857 5856 5855 5855 5854 5854 5854 5854 5855 5855 5856 5856 5857 5858 5858 5859 5860 5861 5863 5863 5864 5865 5866 5867 5868 5869 5870 5870 5871 5872 5873 5874 5875 5876 5877
5866 5864 5862 5860 5858 5856 5855 5854 5852 5851 5850 5849 5848 5848 5847 5848 5848 5849 5850 5851 5852 5853 5854 5855 5856 5857 5859 5860 5861 5862 5863 5864 5865 5866 5867 5868 5869 5870 5871 5872 5873 5874 5875
5863 5860 5858 5856 5854 5852 5850 5848 5846 5845 5844 5843 5842 5841 5841 5841 5842 5843 5844 5845 5846 5847 5848 5850 5851 5853 5855 5856 5858 5859 5860 5861 5863 5864 5865 5866 5867 5868 5869 5870 5871 5872 5874
5859 5857 5855 5852 5850 5848 5845 5843 5841 5840 5838 5837 5836 5835 5835 5835 5835 5836 5837 5838 5840 5841 5843 5844 5846 5848 5850 5852 5854 5856 5857 5859 5860 5861 5862 5864 5865 5866 5867 5868 5869 5871 5872
5856 5854 5851 5849 5846 5844 5841 5839 5837 5835 5833 5832 5831 5829 5829 5828 5829 5829 5830 5832 5833 5835 5837 5839 5840 5843 5845 5847 5849 5852 5853 5855 5857 5858 5860 5862 5863 5864 5865 5866 5868 5869 5871
5854 5851 5849 5846 5843 5840 5838 5835 5833 5831 5829 5827 5825 5824 5823 5822 5822 5823 5823 5825 5826 5829 5831 5833 5835 5837 5839 5842 5845 5847 5849 5852 5854 5856 5857 5859 5860 5862 5863 5864 5866 5868 5869
5852 5849 5846 5843 5841 5838 5835 5832 5829 5827 5824 5822 5820 5819 5818 5817 5816 5817 5817 5818 5820 5822 5824 5827 5830 5832 5834 5837 5840 5843 5845 5848 5850 5852 5854 5856 5858 5860 5861 5863 5864 5866 5868
5850 5847 5844 5841 5838 5835 5832 5829 5826 5823 5820 5818 5816 5814 5813 5812 5811 5811 5811 5812 5813 5816 5818 5821 5823 5826 5829 5832 5835 5838 5841 5844 5847 5849 5852 5854 5856 5858 5859 5860 5862 5864 5866
5848 5846 5843 5840 5837 5833 5830 5827 5823 5820 5817 5814 5812 5810 5808 5807 5806 5805 5805 5806 5807 5809 5812 5815 5818 5821 5823 5827 5830 5833 5837 5840 5843 5846 5849 5851 5853 5855 5857 5858 5860 5862 5864
5847 5844 5842 5839 5836 5832 5829 5825 5821 5818 5814 5811 5808 5806 5804 5802 5801 5800 5800 5801 5802 5804 5806 5809 5812 5815 5819 5822 5825 5829 5833 5836 5839 5842 5845 5848 5850 5853 5855 5857 5859 5860 5863
5846 5844 5841 5838 5835 5831 5828 5824 5820 5816 5812 5809 5806 5803 5800 5798 5797 5795 5795 5796 5797 5799 5801 5803 5807 5810 5813 5817 5821 5824 5828 5832 5836 5839 5842 5845 5848 5850 5853 5855 5857 5859 5861
5845 5843 5840 5837 5834 5830 5827 5823 5819 5815 5811 5807 5803 5800 5797 5795 5793 5792 5791 5791 5792 5794 5796 5799 5802 5805 5809 5812 5816 5820 5824 5828 5832 5835 5838 5842 5845 5848 5851 5853 5855 5857 5859
5845 5842 5840 5837 5833 5830 5826 5822 5818 5814 5809 5805 5802 5798 5795 5792 5790 5789 5788 5788 5788 5790 5792 5795 5797 5800 5804 5808 5811 5815 5819 5823 5827 5831 5835 5838 5841 5845 5848 5851 5853 5855 5858
5844 5842 5839 5836 5833 5829 5826 5822 5817 5813 5809 5805 5801 5797 5794 5791 5788 5787 5785 5785 5785 5787 5789 5791 5794 5796 5799 5803 5807 5810 5814 5818 5822 5827 5831 5834 5838 5841 5845 5848 5850 5853 5856
5844 5841 5839 5836 5833 5829 5825 5821 5817 5813 5808 5804 5800 5796 5793 5790 5787 5785 5784 5783 5783 5784 5786 5788 5790 5793 5795 5799 5802 5806 5810 5814 5818 5822 5826 5830 5834 5838 5841 5844 5847 5850 5853
5843 5841 5838 5835 5832 5829 5825 5821 5817 5813 5808 5804 5800 5796 5792 5789 5786 5784 5782 5781 5781 5782 5783 5785 5787 5790 5792 5795 5798 5802 5806 5809 5813 5817 5821 5826 5830 5833 5837 5840 5843 5846 5849
5842 5840 5838 5835 5831 5828 5824 5820 5816 5812 5808 5804 5799 5796 5792 5789 5786 5784 5782 5781 5780 5781 5782 5783 5785 5787 5789 5792 5795 5798 5802 5806 5809 5813 5817 5821 5825 5829 5833 5836 5839 5842 5845
5841 5839 5837 5834 5831 5827 5824 5820 5816 5812 5808 5804 5800 5796 5792 5789 5786 5784 5782 5781 5780 5780 5781 5781 5783 5784 5786 5789 5792 5795 5798 5801 5805 5809 5812 5816 5820 5824 5828 5831 5835 5838 5841
5841 5838 5836 5833 5830 5827 5823 5820 5816 5812 5808 5804 5800 5796 5793 5790 5787 5784 5783 5781 5780 5780 5780 5780 5781 5782 5784 5786 5788 5791 5794 5797 5800 5804 5808 5811 5815 5818 5822 5826 5829 5832 5836
5839 5838 5835 5833 5830 5826 5823 5819 5815 5812 5808 5804 5800 5796 5793 5790 5788 5785 5783 5782 5781 5780 5780 5780 5780 5781 5782 5783 5785 5788 5790 5792 5795 5799 5802 5806 5809 5812 5816 5819 5823 5826 5830
5838 5837 5835 5832 5829 5826 5822 5819 5815 5811 5808 5804 5801 5797 5794 5791 5788 5786 5784 5783 5781 5780 5780 5779 5779 5779 5780 5781 5782 5784 5786 5788 5791 5793 5797 5800 5803 5806 5810 5813 5816 5820 5823